Location: Makakahi
(40.6833°S, 175.6000°E)
Time: 00:20:12
(UTC+00:00)

FENGYUN 1C DEB - Pass Details

Date: 14 December 2024
Orbit: 812 x 877 km, 98.8° (Epoch: 19 January)

Event Time Altitude Azimuth Distance (km) Brightness Sun altitude
Rises 08:40:33 0° 162° (SSE) 3,392 ? -9.3°
Reaches altitude 10° 08:42:58 10° 157° (SSE) 2,459 ? -9.7°
Maximum altitude 08:48:18 54° 80° (E) 1,020 ? -10.4°
Drops below altitude 10° 08:53:40 10° 2° (N) 2,469 ? -11.2°
Enters shadow 08:55:25 - 358° (N) 3,147 ? -11.4°
